FREGAT DEB, 46260

Orbit data source: Space-Track

FREGAT DEB, 46260 is space debris in LEO originally from a launch on Mon, 18 Jul 2011 UTC launched from the Tyuratam Missile And Space Complex (TTMTR). Debris objects in space refer to the collection of defunct objects orbiting the Earth. Examples of debris include non-operational satellites, rocket bodies, and fragments generated from explosions, collisions, or faulty payload assembly.

Loading next visibility...
Identifier
46260, 2011-037KW
Orbit
LEO
Country
Flag of CISCIS
Related business
Manufacturer
Lavochkin
Mission
Spacecraft
Bus & Motor
Unknown
Mass
Unknown
Launch date (UTC)
2011-07-18 (15 years ago)
Launch vehicle
Unknown
Launch site
Tyuratam Missile And Space Complex (TTMTR)
Object type
Payload
Rocket body
Debris
Shape & HBR
Unknown shape, 0.2 m
Radar Cross Section
Medium (>0.1 m² and <1 m²)

Expand to show TLE details & history
Last TLE update: 1 day ago

TLE from 1 day ago
0 FREGAT DEB
1 46260U 11037KW  26254.31188740  .00008210  00000-0  64879-1 0  9997
2 46260  51.2984 250.2902 1417578 212.8339 137.6069 10.76259222 61353
Epoch: 2026-09-11T07:29Z
TLE epoch observation values (Epoch: 2026-09-11T07:29:07.071Z)
Latitude
0.00001°
Longitude
147.67369°
Altitude
3,262.915 km
Speed
6.059 km/s
True Right ascension
16h 41m 09s
True Declination
0° 00' 00"
Sunlit
Object was in daylight at epoch
Visualization orbit readout
Latitude
Unknown
Longitude
Unknown
Altitude
Unknown
Speed
Unknown
Apparent Right ascension
Unknown
Apparent Declination
Unknown
Sunlit
N/A
Visualization observer readout
Local Sidereal Time
08:03:26
Azimuth
Unknown
Elevation
Unknown
Doppler factor
Unknown
Orbital elements
Apogee altitude
3,516.219 km
Perigee altitude
1,059.302 km
Semi-major axis
8,665.897 km
Eccentricity
0.14176
Inclination
51.2984°
RAAN
250.2902°
Arg. of periapsis
212.8339°
True anomaly
147.24211°
Mean anomaly
137.6069°
Eccentric anomaly
142.54614°
Mean motion
2.69044 °/min
Orbital period
133.81 mins
BSTAR
0.064879
Loading maneuver chart data...
Computing Atmospheric mass density...
Loading historical data...
Loading historical data...
Loading historical data...
Loading historical data...
Loading historical data...
Loading historical data...
Loading historical data...

Documentation

Showing up to 5 results
|